SCP
-0 -0 -0 -0 -0 -0 -0 -1 -1 -1 -1 -1 -1 -1 -1 -0 -0 -0 -0 0 -0 -0 -0 -0 0 0 0 0 0 0 0 0 0 0 0 0 0 0 0 0 0 0 0
-0 -0 -0 -0 -0 -0 -1 -1 -1 -1 -1 -1 -1 -1 -1 -0 -0 -0 -0 -0 -0 -0 -0 0 0 0 0 0 0 0 0 0 0 0 0 0 0 0 0 0 0 0 0
-0 -0 -0 -0 -0 -0 -1 -1 -1 -1 -1 -1 -1 -1 -0 -0 -0 -0 0 -0 -0 -0 -0 0 0 0 0 0 0 0 0 0 0 0 0 0 0 0 0 0 0 0 0
-1 -1 -0 -0 -0 -0 -1 -1 -1 -1 -1 -1 -1 -1 -0 -0 -0 -0 0 0 0 -0 -0 0 0 0 0 0 0 0 0 0 0 0 0 0 0 0 0 0 0 0 0
-0 -0 -0 -0 -0 -0 -0 -0 -1 -1 -1 -1 -1 -1 -0 -0 -0 0 0 0 0 -0 0 0 0 0 0 0 0 0 0 0 0 0 0 0 0 0 0 0 0 0 0
-0 -0 -0 -0 -0 -0 -0 -0 -0 -1 -1 -1 -1 -0 -0 -0 -0 0 -0 -0 -0 -0 0 0 0 0 0 0 0 0 0 0 0 0 0 0 0 0 0 0 0 0 0
0 0 -0 -0 -0 -0 -0 -0 -0 -0 -0 -0 -0 -0 -0 -0 -0 0 -0 -0 -0 -0 0 0 0 0 0 0 0 0 0 0 0 0 0 0 0 0 0 0 0 0 0
0 0 0 0 0 -0 -0 -0 -0 -0 -0 -0 -0 -0 -0 -0 -0 0 0 0 0 0 0 0 0 0 0 0 0 0 0 0 0 0 0 0 -0 0 0 0 0 0 0
0 0 0 0 0 0 0 0 0 0 0 0 0 0 0 0 0 0 0 0 0 -0 0 0 0 -0 0 0 0 0 0 -0 -0 -0 -0 0 0 0 0 0 0 0 0
0 0 0 0 0 0 0 0 0 0 0 0 0 0 0 0 0 0 0 0 -0 -0 -0 -0 -0 -0 -0 -0 -0 -0 -0 -0 -0 -0 -0 -0 -0 -0 -0 0 0 0 0
-0 0 0 0 0 0 0 0 0 0 0 0 0 0 0 0 0 0 0 0 0 0 0 0 0 0 0 0 0 0 0 0 -0 -0 -0 0 -0 -0 -0 0 0 0 0
-0 -0 -0 0 0 0 0 0 0 0 0 0 0 0 0 0 0 0 0 0 0 0 0 0 0 0 0 0 0 0 0 0 0 0 0 0 -0 -0 -0 0 0 0 0
-0 -0 -0 -0 0 0 0 0 0 0 0 0 0 0 0 0 0 0 0 0 0 0 0 0 0 0 0 0 0 0 0 0 0 0 0 0 0 0 0 0 0 0 1
-0 -0 0 0 0 0 0 0 0 0 1 1 0 0 0 0 0 0 0 0 0 0 0 0 0 0 0 0 0 0 0 0 0 0 0 0 0 0 0 0 0 0 0
0 0 0 0 0 0 0 1 1 1 1 1 1 1 0 0 0 0 0 0 0 0 0 0 0 0 0 0 0 0 0 0 0 0 0 0 0 0 0 0 0 0 1
0 0 0 0 1 1 1 1 1 1 1 1 1 1 1 1 1 0 0 0 0 0 0 0 0 0 0 0 0 0 0 0 0 0 0 0 0 0 0 0 0 0 0
-0 0 0 0 1 1 1 1 1 2 1 1 1 1 1 1 0 0 0 0 0 0 0 0 0 0 0 1 0 0 0 0 0 0 0 0 0 0 0 0 0 1 1
0 0 0 1 1 1 1 2 2 2 2 1 1 1 1 1 0 1 1 1 1 1 1 1 1 1 1 1 1 1 1 0 0 0 0 0 0 0 0 0 0 1 1
0 0 0 0 0 1 1 2 2 2 2 1 1 1 1 1 1 1 1 1 1 1 1 1 1 1 1 1 1 1 1 1 1 1 0 0 0 0 0 0 1 1 1
0 0 0 0 1 1 1 1 1 1 1 1 1 1 2 2 1 1 1 2 1 1 1 1 1 1 1 1 1 1 1 1 1 1 1 1 1 1 1 0 0 0 1
0 0 0 1 1 1 1 1 1 1 1 1 1 1 1 1 1 1 1 1 1 1 1 1 1 1 1 1 1 1 1 1 1 1 1 1 1 1 1 1 1 1 1
0 0 1 1 1 2 1 1 1 1 1 1 1 1 1 1 1 1 1 0 1 1 1 1 1 1 1 1 1 1 1 1 1 1 1 1 1 1 1 1 1 2 1
0 0 0 1 1 1 0 0 0 0 0 0 0 0 0 0 0 0 0 0 0 0 0 0 0 1 0 0 1 1 1 1 1 1 1 1 1 1 1 2 1 2 1
0 0 0 0 0 0 0 0 1 0 0 0 0 0 0 0 0 0 0 0 0 0 0 0 0 0 0 0 0 1 1 1 1 0 1 1 1 1 1 1 1 1 2
0 0 0 0 0 0 0 0 0 0 0 0 0 0 0 0 0 0 0 0 0 0 0 0 0 0 0 0 0 0 1 1 1 1 1 0 0 1 1 1 1 1 2
0 0 0 0 0 0 0 0 0 0 0 0 0 0 0 0 0 0 0 0 0 0 0 0 0 0 0 0 0 0 1 1 0 1 1 1 0 0 1 1 1 1 1
Wind_Speed_500mb
50 49 49 49 48 44 41 39 40 45 47 46 40 33 25 18 19 27 31 32 31 34 33 32 25 21 19 20 22 23 23 24 23 24 26 27 27 26 23 21 19 17 14
53 52 52 50 49 45 41 39 42 45 43 42 36 31 24 21 21 29 32 32 32 32 30 25 21 18 18 19 20 22 22 20 19 21 24 26 26 26 23 20 18 15 13
54 53 54 52 50 46 42 40 42 44 41 37 34 29 26 23 25 31 32 31 30 27 23 20 19 18 18 16 17 19 17 14 14 16 19 22 23 24 23 20 17 15 13
53 54 53 50 48 45 42 40 40 40 38 35 31 27 25 24 28 32 31 29 26 23 21 19 19 17 15 13 13 14 14 13 11 14 17 17 18 20 21 18 17 15 13
55 53 51 49 46 44 42 39 37 36 34 31 28 25 25 28 31 33 30 27 24 21 19 18 17 15 12 10 11 12 11 10 9 10 12 12 12 13 17 16 15 13 12
54 54 50 47 44 43 42 38 35 33 31 29 26 26 30 33 34 32 29 26 22 19 17 17 15 13 10 9 9 8 7 5 3 5 6 7 8 8 11 13 12 11 11
55 54 52 47 44 43 40 37 33 31 30 29 28 30 33 34 34 31 27 23 19 17 16 15 13 12 10 9 9 9 9 8 5 4 6 5 4 7 8 9 9 8 9
52 55 53 49 45 43 40 36 32 29 29 30 29 31 33 33 31 28 25 21 17 14 13 12 11 11 11 11 12 12 13 14 13 11 9 8 6 5 8 8 7 6 8
53 53 53 51 49 44 41 37 32 29 27 28 29 29 30 29 28 27 24 21 18 16 14 14 14 14 14 14 15 16 18 20 21 22 19 16 15 12 12 13 11 9 9
52 51 53 52 52 50 45 38 34 30 27 26 27 28 27 27 28 27 25 23 21 20 20 19 18 18 19 20 22 23 24 27 28 27 26 26 23 22 16 16 16 14 12
55 54 56 56 55 53 48 43 38 34 30 27 27 28 29 31 30 29 28 26 25 24 23 23 22 22 23 26 27 28 29 32 32 31 30 26 28 28 23 23 20 19 18
55 55 57 55 53 53 49 46 43 41 39 37 34 31 30 29 28 28 28 28 27 27 26 27 27 26 28 31 31 31 34 35 34 35 36 32 31 32 30 27 25 23 22
47 53 55 55 55 53 52 50 48 47 45 42 39 36 33 31 31 30 30 29 29 29 30 30 32 33 34 35 35 35 37 40 39 38 38 34 36 35 37 32 32 31 28
45 49 50 51 52 51 51 51 51 50 47 46 42 39 38 37 36 36 35 34 33 33 34 34 36 36 38 41 43 44 44 43 44 45 42 39 36 41 43 41 39 37 39
44 48 47 47 48 49 51 54 55 54 50 46 43 40 40 39 39 39 40 40 40 40 40 41 43 44 45 46 49 50 49 49 48 50 51 44 47 46 43 46 45 46 43
45 48 44 46 46 48 50 52 52 55 54 47 45 40 40 38 37 38 38 39 41 42 45 46 47 49 52 54 56 58 56 54 56 54 54 51 51 50 54 53 51 51 51
41 43 46 48 49 51 51 52 52 51 52 48 44 40 38 35 31 31 31 32 32 34 38 43 47 48 51 53 58 60 61 59 60 58 57 62 61 55 58 58 60 56 55
36 36 41 45 47 50 53 55 54 52 48 46 41 38 35 31 27 26 29 33 34 38 36 39 42 48 51 51 53 55 55 55 58 61 64 62 65 67 65 61 59 61 61
41 40 41 43 42 41 45 48 49 48 47 43 39 37 32 27 28 29 32 33 33 37 41 42 45 47 49 55 58 58 60 61 57 57 62 65 65 69 69 67 63 62 61
44 42 38 34 30 32 35 38 39 41 44 44 40 36 34 31 33 35 36 35 36 38 44 45 50 50 51 50 49 51 62 65 64 64 64 62 67 70 70 68 66 69 65
51 50 39 35 34 31 32 32 32 35 42 44 41 34 34 36 34 31 30 31 36 42 45 46 47 50 53 50 53 58 50 53 65 63 62 60 60 62 66 71 67 67 68
48 52 44 45 36 35 38 38 39 38 37 37 36 37 36 32 29 29 34 39 44 49 51 50 49 49 47 40 40 40 37 43 41 49 49 49 48 50 50 52 62 68 65
50 58 55 52 43 42 41 42 46 40 37 41 36 31 28 27 28 28 32 37 42 46 46 41 39 43 50 40 41 38 24 31 36 36 37 42 51 55 58 55 54 52 52
52 58 62 60 57 53 51 50 46 43 36 30 26 26 28 26 22 23 23 23 26 31 33 36 38 41 44 48 43 47 53 52 41 41 41 37 47 52 50 50 55 52 49
54 64 65 59 50 43 33 25 23 27 27 27 30 28 27 27 25 26 26 25 24 28 32 34 38 42 40 38 41 46 54 56 59 59 56 60 50 51 58 60 61 64 62
42 50 54 43 33 26 23 26 27 23 19 23 29 30 29 31 32 34 34 34 35 37 36 37 37 36 36 37 37 43 50 47 47 53 58 58 66 58 53 65 69 73 76
Wind_Direction_500mb
183 181 173 170 173 174 172 169 166 162 160 160 161 163 162 157 149 151 148 148 147 145 142 147 145 138 127 120 114 108 107 105 95 92 85 82 77 73 69 67 67 67 68
177 179 173 172 174 176 173 170 166 163 163 165 169 170 172 164 159 158 152 151 149 147 146 145 144 135 128 122 118 119 119 111 99 89 84 79 76 72 68 62 65 65 66
178 176 173 175 174 177 176 174 169 166 167 170 173 175 173 169 166 163 159 156 156 153 151 152 149 142 136 130 126 128 133 118 105 85 82 77 73 73 67 58 57 58 60
177 175 175 177 177 178 180 178 174 171 172 174 177 180 180 173 169 167 164 160 161 156 153 153 152 149 145 141 133 131 132 130 115 86 76 73 71 71 69 59 51 49 50
177 176 177 178 180 180 180 179 178 177 176 178 184 188 184 174 172 170 168 166 161 157 156 159 161 161 160 155 147 142 130 123 112 80 74 68 66 64 69 64 56 44 42
178 176 179 180 182 182 180 181 185 185 185 187 193 191 183 175 174 173 173 170 168 165 165 170 174 176 181 179 177 178 172 153 136 66 60 59 55 56 59 60 51 38 30
177 179 180 182 184 183 182 184 188 191 195 195 192 185 181 177 177 177 176 177 176 175 177 183 190 195 202 210 215 223 227 235 249 302 325 351 31 28 36 45 47 32 25
180 181 182 183 185 187 186 188 191 196 196 191 188 185 183 180 180 181 181 181 185 188 192 200 209 215 222 230 237 244 251 256 264 276 290 301 313 320 337 352 11 9 4
183 185 185 185 185 189 192 192 194 194 193 191 189 186 185 184 185 188 191 194 197 201 207 215 220 224 231 241 249 256 262 263 263 265 271 277 287 297 300 310 320 329 326
186 190 190 190 188 190 194 197 198 197 194 193 193 191 189 191 196 200 202 205 208 213 218 221 226 231 234 238 242 246 252 260 263 266 270 273 276 289 293 286 296 309 307
190 194 195 195 194 194 197 199 200 202 202 198 197 197 198 203 206 211 215 218 221 225 227 230 233 236 241 244 246 248 252 257 263 267 268 269 264 269 271 281 280 285 289
194 198 200 201 202 200 202 205 206 207 207 206 206 204 207 212 218 223 229 233 237 242 246 247 247 247 246 249 254 258 259 262 267 272 274 273 268 266 260 268 276 280 289
195 202 204 206 207 205 207 210 212 213 214 215 215 216 219 222 225 231 237 241 245 251 256 263 269 269 268 268 266 266 270 274 272 271 272 276 275 268 265 264 273 277 273
205 207 207 209 211 213 217 218 220 221 222 223 224 225 227 232 236 241 245 249 252 257 261 264 267 270 274 277 279 278 276 274 275 277 273 271 271 271 265 266 266 266 274
219 217 215 214 215 217 222 224 225 226 228 232 233 235 238 242 246 249 252 255 259 263 266 270 274 277 278 278 278 279 280 281 278 280 280 274 272 268 264 265 265 267 270
229 230 225 224 225 224 226 231 232 231 231 234 235 240 245 248 253 257 260 263 265 267 270 272 274 277 278 280 280 280 278 279 278 277 276 273 272 272 268 265 263 262 269
220 222 225 230 231 231 232 235 236 237 239 237 239 240 246 249 250 254 257 262 269 275 274 275 276 276 278 280 279 279 279 277 274 274 273 274 270 264 263 263 265 263 266
224 222 219 221 226 232 235 238 240 241 241 237 237 241 242 244 247 254 266 274 279 280 273 272 274 274 273 273 275 278 280 278 274 272 268 268 270 271 269 265 259 263 260
226 215 213 218 225 232 236 239 243 242 242 237 235 235 232 238 250 258 261 264 265 270 276 278 280 282 281 279 278 278 277 278 277 275 271 268 265 266 270 266 263 265 261
228 220 213 216 222 219 223 228 232 231 231 226 228 229 232 239 250 254 262 267 274 279 282 282 281 278 279 279 280 279 279 278 276 274 271 272 268 265 266 269 270 266 263
229 219 215 225 229 226 228 229 224 220 218 221 227 224 232 239 244 252 262 273 282 287 288 287 285 285 281 280 283 282 282 282 275 273 272 271 272 268 267 266 269 270 269
237 229 229 233 231 230 223 223 223 221 218 220 221 224 228 233 244 259 271 281 283 283 283 285 286 285 285 279 275 284 289 287 280 282 278 273 269 266 265 265 267 267 269
224 224 227 230 230 231 228 227 226 221 223 221 214 209 220 237 252 265 272 273 276 278 282 288 294 292 288 277 270 261 273 268 284 278 274 267 272 273 272 271 266 264 265
218 219 222 225 223 223 223 224 226 226 211 211 222 230 238 239 255 266 273 276 280 277 280 291 293 291 286 277 271 265 257 261 270 280 276 275 270 267 266 264 267 263 257
221 223 224 225 222 218 207 197 199 204 214 224 234 237 245 257 267 272 273 274 275 275 279 290 292 294 280 277 273 271 265 267 265 262 271 279 276 276 272 266 262 259 260
223 222 213 208 198 191 195 207 215 221 243 262 255 249 258 261 264 267 265 266 267 271 278 286 295 298 288 280 276 270 267 263 269 266 261 263 274 272 269 272 268 269 267
Wind_Speed_850mb
50 49 49 49 48 44 41 39 40 45 47 46 40 33 25 18 19 27 31 32 31 34 33 32 25 21 19 20 22 23 23 24 23 24 26 27 27 26 23 21 19 17 14
53 52 52 50 49 45 41 39 42 45 43 42 36 31 24 21 21 29 32 32 32 32 30 25 21 18 18 19 20 22 22 20 19 21 24 26 26 26 23 20 18 15 13
54 53 54 52 50 46 42 40 42 44 41 37 34 29 26 23 25 31 32 31 30 27 23 20 19 18 18 16 17 19 17 14 14 16 19 22 23 24 23 20 17 15 13
53 54 53 50 48 45 42 40 40 40 38 35 31 27 25 24 28 32 31 29 26 23 21 19 19 17 15 13 13 14 14 13 11 14 17 17 18 20 21 18 17 15 13
55 53 51 49 46 44 42 39 37 36 34 31 28 25 25 28 31 33 30 27 24 21 19 18 17 15 12 10 11 12 11 10 9 10 12 12 12 13 17 16 15 13 12
54 54 50 47 44 43 42 38 35 33 31 29 26 26 30 33 34 32 29 26 22 19 17 17 15 13 10 9 9 8 7 5 3 5 6 7 8 8 11 13 12 11 11
55 54 52 47 44 43 40 37 33 31 30 29 28 30 33 34 34 31 27 23 19 17 16 15 13 12 10 9 9 9 9 8 5 4 6 5 4 7 8 9 9 8 9
52 55 53 49 45 43 40 36 32 29 29 30 29 31 33 33 31 28 25 21 17 14 13 12 11 11 11 11 12 12 13 14 13 11 9 8 6 5 8 8 7 6 8
53 53 53 51 49 44 41 37 32 29 27 28 29 29 30 29 28 27 24 21 18 16 14 14 14 14 14 14 15 16 18 20 21 22 19 16 15 12 12 13 11 9 9
52 51 53 52 52 50 45 38 34 30 27 26 27 28 27 27 28 27 25 23 21 20 20 19 18 18 19 20 22 23 24 27 28 27 26 26 23 22 16 16 16 14 12
55 54 56 56 55 53 48 43 38 34 30 27 27 28 29 31 30 29 28 26 25 24 23 23 22 22 23 26 27 28 29 32 32 31 30 26 28 28 23 23 20 19 18
55 55 57 55 53 53 49 46 43 41 39 37 34 31 30 29 28 28 28 28 27 27 26 27 27 26 28 31 31 31 34 35 34 35 36 32 31 32 30 27 25 23 22
47 53 55 55 55 53 52 50 48 47 45 42 39 36 33 31 31 30 30 29 29 29 30 30 32 33 34 35 35 35 37 40 39 38 38 34 36 35 37 32 32 31 28
45 49 50 51 52 51 51 51 51 50 47 46 42 39 38 37 36 36 35 34 33 33 34 34 36 36 38 41 43 44 44 43 44 45 42 39 36 41 43 41 39 37 39
44 48 47 47 48 49 51 54 55 54 50 46 43 40 40 39 39 39 40 40 40 40 40 41 43 44 45 46 49 50 49 49 48 50 51 44 47 46 43 46 45 46 43
45 48 44 46 46 48 50 52 52 55 54 47 45 40 40 38 37 38 38 39 41 42 45 46 47 49 52 54 56 58 56 54 56 54 54 51 51 50 54 53 51 51 51
41 43 46 48 49 51 51 52 52 51 52 48 44 40 38 35 31 31 31 32 32 34 38 43 47 48 51 53 58 60 61 59 60 58 57 62 61 55 58 58 60 56 55
36 36 41 45 47 50 53 55 54 52 48 46 41 38 35 31 27 26 29 33 34 38 36 39 42 48 51 51 53 55 55 55 58 61 64 62 65 67 65 61 59 61 61
41 40 41 43 42 41 45 48 49 48 47 43 39 37 32 27 28 29 32 33 33 37 41 42 45 47 49 55 58 58 60 61 57 57 62 65 65 69 69 67 63 62 61
44 42 38 34 30 32 35 38 39 41 44 44 40 36 34 31 33 35 36 35 36 38 44 45 50 50 51 50 49 51 62 65 64 64 64 62 67 70 70 68 66 69 65
51 50 39 35 34 31 32 32 32 35 42 44 41 34 34 36 34 31 30 31 36 42 45 46 47 50 53 50 53 58 50 53 65 63 62 60 60 62 66 71 67 67 68
48 52 44 45 36 35 38 38 39 38 37 37 36 37 36 32 29 29 34 39 44 49 51 50 49 49 47 40 40 40 37 43 41 49 49 49 48 50 50 52 62 68 65
50 58 55 52 43 42 41 42 46 40 37 41 36 31 28 27 28 28 32 37 42 46 46 41 39 43 50 40 41 38 24 31 36 36 37 42 51 55 58 55 54 52 52
52 58 62 60 57 53 51 50 46 43 36 30 26 26 28 26 22 23 23 23 26 31 33 36 38 41 44 48 43 47 53 52 41 41 41 37 47 52 50 50 55 52 49
54 64 65 59 50 43 33 25 23 27 27 27 30 28 27 27 25 26 26 25 24 28 32 34 38 42 40 38 41 46 54 56 59 59 56 60 50 51 58 60 61 64 62
42 50 54 43 33 26 23 26 27 23 19 23 29 30 29 31 32 34 34 34 35 37 36 37 37 36 36 37 37 43 50 47 47 53 58 58 66 58 53 65 69 73 76
Wind_Direction_850mb
183 181 173 170 173 174 172 169 166 162 160 160 161 163 162 157 149 151 148 148 147 145 142 147 145 138 127 120 114 108 107 105 95 92 85 82 77 73 69 67 67 67 68
177 179 173 172 174 176 173 170 166 163 163 165 169 170 172 164 159 158 152 151 149 147 146 145 144 135 128 122 118 119 119 111 99 89 84 79 76 72 68 62 65 65 66
178 176 173 175 174 177 176 174 169 166 167 170 173 175 173 169 166 163 159 156 156 153 151 152 149 142 136 130 126 128 133 118 105 85 82 77 73 73 67 58 57 58 60
177 175 175 177 177 178 180 178 174 171 172 174 177 180 180 173 169 167 164 160 161 156 153 153 152 149 145 141 133 131 132 130 115 86 76 73 71 71 69 59 51 49 50
177 176 177 178 180 180 180 179 178 177 176 178 184 188 184 174 172 170 168 166 161 157 156 159 161 161 160 155 147 142 130 123 112 80 74 68 66 64 69 64 56 44 42
178 176 179 180 182 182 180 181 185 185 185 187 193 191 183 175 174 173 173 170 168 165 165 170 174 176 181 179 177 178 172 153 136 66 60 59 55 56 59 60 51 38 30
177 179 180 182 184 183 182 184 188 191 195 195 192 185 181 177 177 177 176 177 176 175 177 183 190 195 202 210 215 223 227 235 249 302 325 351 31 28 36 45 47 32 25
180 181 182 183 185 187 186 188 191 196 196 191 188 185 183 180 180 181 181 181 185 188 192 200 209 215 222 230 237 244 251 256 264 276 290 301 313 320 337 352 11 9 4
183 185 185 185 185 189 192 192 194 194 193 191 189 186 185 184 185 188 191 194 197 201 207 215 220 224 231 241 249 256 262 263 263 265 271 277 287 297 300 310 320 329 326
186 190 190 190 188 190 194 197 198 197 194 193 193 191 189 191 196 200 202 205 208 213 218 221 226 231 234 238 242 246 252 260 263 266 270 273 276 289 293 286 296 309 307
190 194 195 195 194 194 197 199 200 202 202 198 197 197 198 203 206 211 215 218 221 225 227 230 233 236 241 244 246 248 252 257 263 267 268 269 264 269 271 281 280 285 289
194 198 200 201 202 200 202 205 206 207 207 206 206 204 207 212 218 223 229 233 237 242 246 247 247 247 246 249 254 258 259 262 267 272 274 273 268 266 260 268 276 280 289
195 202 204 206 207 205 207 210 212 213 214 215 215 216 219 222 225 231 237 241 245 251 256 263 269 269 268 268 266 266 270 274 272 271 272 276 275 268 265 264 273 277 273
205 207 207 209 211 213 217 218 220 221 222 223 224 225 227 232 236 241 245 249 252 257 261 264 267 270 274 277 279 278 276 274 275 277 273 271 271 271 265 266 266 266 274
219 217 215 214 215 217 222 224 225 226 228 232 233 235 238 242 246 249 252 255 259 263 266 270 274 277 278 278 278 279 280 281 278 280 280 274 272 268 264 265 265 267 270
229 230 225 224 225 224 226 231 232 231 231 234 235 240 245 248 253 257 260 263 265 267 270 272 274 277 278 280 280 280 278 279 278 277 276 273 272 272 268 265 263 262 269
220 222 225 230 231 231 232 235 236 237 239 237 239 240 246 249 250 254 257 262 269 275 274 275 276 276 278 280 279 279 279 277 274 274 273 274 270 264 263 263 265 263 266
224 222 219 221 226 232 235 238 240 241 241 237 237 241 242 244 247 254 266 274 279 280 273 272 274 274 273 273 275 278 280 278 274 272 268 268 270 271 269 265 259 263 260
226 215 213 218 225 232 236 239 243 242 242 237 235 235 232 238 250 258 261 264 265 270 276 278 280 282 281 279 278 278 277 278 277 275 271 268 265 266 270 266 263 265 261
228 220 213 216 222 219 223 228 232 231 231 226 228 229 232 239 250 254 262 267 274 279 282 282 281 278 279 279 280 279 279 278 276 274 271 272 268 265 266 269 270 266 263
229 219 215 225 229 226 228 229 224 220 218 221 227 224 232 239 244 252 262 273 282 287 288 287 285 285 281 280 283 282 282 282 275 273 272 271 272 268 267 266 269 270 269
237 229 229 233 231 230 223 223 223 221 218 220 221 224 228 233 244 259 271 281 283 283 283 285 286 285 285 279 275 284 289 287 280 282 278 273 269 266 265 265 267 267 269
224 224 227 230 230 231 228 227 226 221 223 221 214 209 220 237 252 265 272 273 276 278 282 288 294 292 288 277 270 261 273 268 284 278 274 267 272 273 272 271 266 264 265
218 219 222 225 223 223 223 224 226 226 211 211 222 230 238 239 255 266 273 276 280 277 280 291 293 291 286 277 271 265 257 261 270 280 276 275 270 267 266 264 267 263 257
221 223 224 225 222 218 207 197 199 204 214 224 234 237 245 257 267 272 273 274 275 275 279 290 292 294 280 277 273 271 265 267 265 262 271 279 276 276 272 266 262 259 260
223 222 213 208 198 191 195 207 215 221 243 262 255 249 258 261 264 267 265 266 267 271 278 286 295 298 288 280 276 270 267 263 269 266 261 263 274 272 269 272 268 269 267